EHI
0 0 0 0 0 0 0 0 0 0 0 0 0 0 0 0 0 0 0 0 0 0 0 0 0 0 0 0 0 0 0 0 0 0 0 0 0 0 0 0 0 0 0 0
0 0 0 0 0 0 0 0 0 0 0 0 0 0 0 0 0 0 0 0 0 0 0 0 0 0 0 0 0 0 0 0 0 0 0 0 0 0 0 0 0 0 0 0
0 0 0 0 0 0 0 0 0 0 0 0 0 0 0 0 0 0 0 0 0 0 0 0 0 0 0 0 0 0 0 0 0 0 0 0 0 0 0 0 0 0 0 0
0 0 0 0 0 0 0 0 0 0 0 0 0 0 0 0 0 0 0 0 0 0 0 0 0 0 0 0 0 0 0 0 0 0 0 0 0 0 0 0 0 0 0 0
0 0 0 0 0 0 0 0 0 0 0 0 0 0 0 0 0 0 0 0 0 0 0 0 0 0 0 0 0 0 0 0 0 0 0 0 0 0 0 0 0 0 0 0
0 0 0 0 0 0 0 0 0 0 0 0 0 0 0 0 0 0 0 0 0 0 0 0 0 0 0 0 0 0 0 0 0 0 0 0 0 0 0 0 0 0 0 0
0 0 0 0 0 0 0 0 0 0 0 0 0 0 0 0 0 0 0 0 0 0 0 0 0 0 0 0 0 0 0 0 0 0 0 0 0 0 0 0 0 0 0 0
0 0 0 0 0 0 0 0 0 0 0 0 0 0 0 0 0 0 0 0 0 0 0 0 0 0 0 0 0 0 0 0 0 0 0 0 0 0 0 0 0 0 0 0
0 0 0 0 0 0 0 0 0 0 0 0 0 0 0 0 0 0 0 0 0 0 0 0 0 0 0 0 0 0 0 0 0 0 0 0 0 0 0 0 0 0 0 0
0 0 0 0 0 0 0 0 0 0 0 0 0 0 0 0 0 0 0 0 0 0 0 0 0 0 0 0 0 0 0 0 0 0 0 0 0 0 0 0 0 0 0 0
0 0 0 0 0 0 0 0 0 0 0 0 0 0 0 0 0 0 0 0 0 0 0 0 0 0 0 0 0 0 0 0 0 0 0 0 0 0 0 0 0 0 0 0
0 0 0 0 0 0 0 0 0 0 0 0 0 0 0 0 0 0 0 0 0 0 0 0 0 0 0 0 0 0 0 0 0 0 0 0 0 0 0 0 0 0 0 0
0 0 0 0 0 0 0 0 0 0 0 0 0 0 0 0 0 0 0 0 0 0 0 0 0 0 0 0 0 0 0 0 0 0 0 0 0 0 0 0 0 0 0 0
0 0 0 0 0 0 0 0 0 0 0 0 0 0 0 0 0 0 0 0 0 0 0 0 0 0 0 0 0 0 0 0 0 0 0 0 0 0 0 0 0 0 0 0
0 0 0 0 0 0 0 0 0 0 0 0 0 0 0 0 0 0 0 0 0 0 0 0 0 0 0 0 0 0 0 0 0 0 0 0 0 0 0 0 0 0 0 0
0 0 0 0 0 0 0 0 0 0 0 0 0 0 0 0 0 0 0 0 0 0 0 0 0 0 0 0 0 0 0 0 0 0 0 0 0 0 0 0 0 0 0 0
0 0 0 0 0 0 0 0 0 0 0 0 0 0 0 0 0 0 0 0 0 0 0 0 0 0 0 0 0 0 0 0 0 0 0 0 0 0 0 0 0 0 0 0
0 0 0 0 0 0 0 0 0 0 0 0 0 0 0 0 0 0 0 0 0 0 0 0 0 0 0 0 0 0 0 0 0 0 0 0 0 0 0 0 0 0 0 0
0 0 0 0 0 0 0 0 0 0 0 0 0 0 0 0 0 0 0 0 0 0 0 0 0 0 0 0 0 0 0 0 0 0 0 0 0 0 0 0 0 0 0 0
0 0 0 0 0 0 0 0 0 0 0 0 0 0 0 0 0 0 0 0 0 0 0 0 0 0 0 0 0 0 0 0 0 0 0 0 0 0 0 0 0 0 0 0
0 0 0 0 0 0 0 0 0 0 0 0 0 0 0 0 0 0 0 0 0 0 0 0 0 0 0 0 0 0 0 0 0 0 0 0 0 0 0 0 0 0 0 0
0 0 0 0 0 0 0 0 0 0 0 0 0 0 0 0 0 0 0 0 0 0 0 0 0 0 0 0 0 0 0 0 0 0 0 0 0 0 0 0 0 0 0 0
0 0 0 0 0 0 0 0 0 0 0 0 0 0 0 0 0 0 0 0 0 0 0 0 0 0 0 0 0 0 0 0 0 0 0 0 0 0 0 0 0 0 0 0
0 0 0 0 0 0 0 0 0 0 0 0 0 0 0 0 0 0 0 0 0 0 0 0 0 0 0 0 0 0 0 0 0 0 0 0 0 0 0 0 0 0 0 0
0 0 0 0 0 0 0 0 0 0 0 0 0 0 0 0 0 0 0 0 0 0 0 0 0 0 0 0 0 0 0 0 0 0 0 0 0 0 0 0 0 0 0 0
0 0 0 0 0 0 0 0 0 0 0 0 0 0 0 0 0 0 0 0 0 0 0 0 0 0 0 0 0 0 0 0 0 0 0 0 0 0 0 0 0 0 0 0
Wind_Speed
4 5 1 2 2 2 2 2 1 2 1 1 3 8 9 4 3 5 5 5 5 6 4 2 2 2 2 2 2 2 2 2 1 1 1 1 0 0 0 0 0 1 1 1
4 1 3 2 1 2 1 1 1 2 2 1 4 8 7 4 5 6 6 6 6 5 3 2 3 3 4 4 4 3 3 3 2 1 1 1 1 0 0 0 0 0 0 0
4 1 1 1 2 1 0 2 2 1 3 1 4 7 4 3 2 3 5 5 5 6 6 4 3 4 4 4 4 4 4 3 3 2 1 1 1 1 0 0 1 1 0 0
2 1 0 2 1 1 2 2 2 1 1 3 2 4 7 3 5 5 5 5 6 5 5 4 4 4 4 5 4 3 3 3 2 2 2 2 2 2 2 1 0 0 0 0
0 0 1 1 1 2 2 0 1 1 1 2 1 2 9 2 5 6 6 6 6 6 5 5 5 5 4 3 3 3 3 2 2 2 3 3 2 2 1 1 1 0 0 0
1 0 0 1 0 2 2 1 2 2 2 2 2 3 8 5 7 5 4 5 5 5 5 5 4 3 3 2 2 2 3 2 2 3 3 3 3 2 1 1 1 1 0 0
2 0 0 1 2 1 1 3 4 5 4 5 2 3 11 7 6 6 6 6 5 5 5 5 4 4 3 3 2 2 3 3 3 3 3 4 4 3 3 3 2 2 1 1
1 2 1 0 2 3 2 3 5 3 4 5 2 7 10 5 4 4 5 5 5 5 5 5 5 5 4 4 3 3 4 3 3 3 3 3 3 2 2 2 2 2 2 2
4 2 0 0 0 2 3 2 2 4 1 2 6 8 11 3 3 3 3 3 5 5 5 5 5 5 5 4 5 5 4 3 3 3 2 2 2 2 2 1 1 1 1 1
3 1 1 0 1 1 1 4 3 3 2 4 6 6 6 5 5 4 4 5 6 5 5 5 4 4 4 4 4 4 4 4 3 3 3 2 2 2 2 2 2 1 1 1
2 3 1 0 3 4 3 2 3 3 3 4 4 9 7 7 5 6 7 6 6 6 5 5 4 4 3 3 3 4 4 3 3 3 2 2 2 2 2 2 2 1 1 1
2 4 1 3 1 0 2 4 5 3 4 3 3 11 4 5 4 4 6 5 5 5 5 4 4 3 3 4 4 4 4 4 4 3 3 3 2 2 2 2 2 1 1 1
4 4 2 4 2 1 2 3 3 3 3 4 5 11 3 2 3 4 5 5 5 4 4 4 4 4 4 4 4 4 4 4 3 3 3 3 2 2 2 2 2 2 1 1
3 3 6 7 5 4 4 5 5 5 5 6 11 13 11 8 8 6 5 5 5 5 5 5 5 5 5 5 5 4 4 4 3 3 3 3 3 3 3 2 2 2 2 2
3 3 4 5 3 2 6 8 9 11 10 11 11 11 16 10 8 7 6 5 5 6 6 6 6 6 5 5 5 5 4 4 4 4 4 4 3 3 2 2 2 1 1 2
2 3 1 4 2 4 8 12 13 13 10 12 12 18 15 9 6 7 7 6 7 8 8 7 7 6 6 6 6 5 5 5 4 5 4 3 3 3 2 2 2 1 1 1
4 4 2 4 3 3 12 13 14 10 10 11 15 16 7 6 7 7 7 8 9 9 8 8 7 7 7 7 7 7 6 5 5 5 4 3 3 3 3 2 2 2 2 1
6 5 2 1 2 10 11 3 10 10 11 14 13 12 8 8 7 7 7 9 10 9 8 7 6 6 5 5 5 5 4 5 5 5 4 4 3 3 2 2 3 2 2 2
5 6 4 2 4 12 11 5 8 9 11 13 16 15 10 4 5 8 8 9 11 9 8 7 6 5 4 4 5 5 5 5 5 5 5 5 4 4 3 3 3 2 2 2
2 3 4 4 5 11 9 3 4 4 10 7 11 13 8 3 3 8 4 4 7 6 5 4 3 3 4 4 5 6 6 6 6 6 5 4 5 5 5 4 3 2 2 2
5 4 6 7 8 14 8 3 6 6 9 3 8 9 7 10 10 5 3 3 4 4 4 3 3 4 4 4 5 6 6 7 6 5 4 4 4 4 4 3 2 2 2 2
11 9 9 7 8 15 5 9 11 10 3 1 3 5 7 9 7 5 5 5 4 3 2 3 3 4 3 4 5 5 6 5 4 4 4 4 4 3 3 3 2 2 2 2
11 11 10 13 13 5 8 10 7 2 3 4 4 4 5 6 7 7 6 6 5 5 4 3 3 3 3 4 5 6 5 3 4 4 4 4 3 3 3 4 3 2 2 2
7 3 5 8 12 8 8 8 7 6 7 6 5 5 4 6 7 7 7 6 5 4 3 3 3 4 4 4 4 4 3 3 4 5 4 4 4 3 3 3 3 3 3 3
9 7 6 11 10 7 9 11 12 11 9 8 8 7 7 7 8 8 7 6 5 4 2 3 4 5 5 3 3 3 3 4 4 4 4 4 3 3 3 3 3 3 3 4
8 11 12 13 9 8 9 7 7 8 10 10 9 8 7 7 9 7 7 5 4 3 2 2 3 3 3 3 2 2 2 4 5 4 4 3 3 3 3 2 1 4 4 4
Wind_Direction
28 65 61 238 211 173 143 150 211 266 343 346 265 276 282 270 232 241 242 239 240 245 244 214 206 215 211 210 210 208 207 220 178 172 183 196 228 329 315 277 84 83 89 106
52 15 269 275 155 121 126 152 276 313 5 355 304 285 276 252 233 228 229 232 236 247 258 228 205 206 213 215 214 211 208 208 204 208 210 188 148 181 252 333 37 101 124 142
141 245 273 134 91 109 148 192 215 276 331 5 330 309 288 266 257 251 234 229 231 229 237 236 225 220 221 222 221 219 214 213 211 200 135 87 79 56 33 321 326 7 109 149
107 316 144 123 117 153 239 207 186 237 15 322 21 301 288 281 290 261 245 235 236 235 234 238 238 238 232 232 225 221 218 215 205 178 176 172 182 211 224 218 203 26 54 153
120 40 91 139 207 183 198 186 162 184 159 319 351 248 283 303 271 259 247 237 237 233 228 233 235 238 239 231 218 214 210 216 198 181 192 189 203 224 212 166 165 215 330 233
169 227 114 175 235 180 164 63 53 58 59 294 232 202 276 244 231 249 243 236 232 230 231 234 237 240 243 227 211 203 196 211 202 193 199 198 205 207 197 210 204 226 246 286
352 10 17 95 95 37 96 87 30 4 0 259 211 220 253 252 235 227 234 236 232 225 225 232 234 234 233 221 211 208 200 219 202 196 203 203 208 202 206 214 208 208 221 241
138 277 237 143 159 165 175 141 150 195 240 282 269 239 254 254 258 251 247 235 229 225 224 229 230 227 227 221 209 204 209 222 210 203 209 199 198 200 214 217 202 205 216 222
164 236 353 148 185 141 137 156 144 126 87 292 272 279 295 258 265 257 252 240 237 235 233 233 230 227 227 221 214 208 208 215 210 204 201 191 187 187 198 196 184 208 228 218
146 175 287 310 99 27 117 140 107 123 156 273 288 271 258 268 259 261 255 249 250 247 246 243 234 232 232 222 218 211 207 209 208 193 191 187 184 186 187 175 184 196 209 207
118 137 303 1 196 187 140 135 135 131 166 179 276 271 228 229 235 239 243 242 242 244 245 241 237 230 229 221 207 206 203 199 200 197 184 174 179 169 169 182 204 210 210 207
139 122 237 246 238 269 190 189 165 172 228 206 235 269 260 231 251 244 252 253 249 243 242 235 228 223 218 216 212 207 203 199 202 192 178 179 182 172 180 198 207 194 211 222
144 122 52 344 323 290 234 210 188 147 136 182 211 263 287 269 272 258 256 262 257 252 248 237 222 218 219 218 214 210 206 202 194 180 177 178 183 186 201 204 196 190 198 205
129 154 184 210 225 187 212 210 185 165 192 221 231 258 281 281 281 282 270 261 254 246 241 235 229 225 221 216 210 209 211 198 184 177 180 191 200 199 204 198 187 188 185 190
131 201 230 255 265 229 230 224 202 207 211 219 243 248 263 264 264 269 267 265 258 255 247 235 228 225 219 214 210 207 205 195 181 180 191 207 202 191 186 190 189 184 185 197
144 181 197 284 264 256 261 242 222 228 231 239 260 268 263 266 261 261 258 251 253 255 251 243 233 223 217 212 208 202 200 196 183 189 201 200 189 185 185 190 183 177 189 191
167 152 164 265 295 321 267 230 204 209 213 203 229 245 260 260 254 248 246 240 243 248 248 239 230 224 219 211 202 202 200 186 181 192 197 192 188 191 192 183 176 189 200 185
159 149 156 262 16 246 247 191 186 206 231 218 236 251 249 249 266 260 241 236 245 245 242 239 231 226 220 204 195 190 183 180 185 191 193 189 186 194 188 183 193 199 194 194
175 157 154 167 245 274 284 225 175 194 256 221 228 248 257 280 317 285 245 225 234 237 234 231 225 217 203 192 184 174 178 180 187 198 200 196 189 191 191 200 204 199 194 200
135 148 156 173 213 246 253 198 172 147 274 233 208 233 238 149 256 270 269 237 242 238 230 224 210 192 192 194 172 173 185 186 200 205 204 195 188 190 198 204 201 196 192 201
161 174 192 201 230 258 251 160 138 182 248 243 201 218 196 198 224 260 284 264 252 240 223 200 187 196 202 184 170 184 191 204 207 194 184 184 187 191 193 189 186 183 184 182
178 178 194 178 216 251 194 149 189 220 271 274 228 221 214 230 254 275 278 270 263 257 239 206 199 213 201 177 176 192 209 210 181 171 176 184 185 182 175 176 181 175 176 185
203 194 189 197 217 236 175 197 218 231 255 255 249 248 233 246 258 265 270 266 262 251 241 220 206 211 212 192 185 200 213 178 167 168 181 184 178 178 173 177 181 176 181 195
236 209 202 244 255 251 234 243 255 245 247 258 256 257 235 248 261 264 267 265 259 255 241 215 191 207 223 213 204 206 184 166 167 179 185 179 178 180 178 181 182 187 195 202
215 181 214 248 264 285 260 237 246 251 253 263 265 253 245 250 260 258 261 259 253 247 238 205 203 212 220 209 210 194 171 162 173 182 182 178 181 181 185 191 201 204 211 206
193 189 199 233 226 218 246 242 231 236 247 248 252 262 252 237 252 257 258 259 254 246 231 219 220 219 217 202 202 177 161 164 169 179 184 182 180 180 184 191 233 235 229 233